Location: DARK SKY Beskydy - Park tmavé oblohy, www.darkskybeskydy.cz
(49.4926°N, 18.5016°E)
Time: 17:59:43
(UTC+02:00)

PCSat - Pass Details

Date: 05 August 2024
Orbit: 781 x 793 km, 67.1° (Epoch: 08 September)

Event Time Altitude Azimuth Distance (km) Brightness Sun altitude
Rises 01:58:25 0° 325° (NW) 3,300 13.3 -22.0°
Reaches altitude 10° 02:01:10 10° 337° (NNW) 2,369 12.7 -21.9°
Maximum altitude 02:05:53 29° 37° (NE) 1,421 11.5 -21.6°
Drops below altitude 10° 02:10:35 10° 97° (E) 2,360 12.2 -21.4°
Sets 02:13:18 0° 109° (ESE) 3,286 12.8 -21.2°
